Stations météo

réclame
Mon MeteoGroup
Aviano, Italie (16036): Température de l'air & dewpoint: 14.10.2018 21:00:00 - 20.10.2018 21:00:00 (CEST)Aviano, Italie (16036): Vitesse du vent: 14.10.2018 21:00:00 - 20.10.2018 21:00:00 (CEST)Aviano, Italie (16036): Direction du vent: 14.10.2018 21:00:00 - 20.10.2018 21:00:00 (CEST)Aviano, Italie (16036): reduced air pressure: 14.10.2018 21:00:00 - 20.10.2018 21:00:00 (CEST)Aviano, Italie (16036): visibility: 14.10.2018 21:00:00 - 20.10.2018 21:00:00 (CEST)
Date & Time tt [°C] td [°C] ff [km/h] ff [knt] dd ppp [hPa] vv [km]
20.10.2018 21:00:00 14,0 13,0 11 6 NNE - 10
20.10.2018 20:00:00 15,4 13,6 11 6 NNE 1022,5 11
20.10.2018 19:00:00 18,0 14,0 9 5 NNE - 10
20.10.2018 18:00:00 21,0 14,0 4 2 S - 10
20.10.2018 17:00:00 22,0 13,9 9 5 SSW 1021,7 25
20.10.2018 16:00:00 22,0 14,0 9 5 SSW - 10
20.10.2018 15:00:00 22,0 14,0 9 5 SSW - 10
20.10.2018 14:00:00 22,6 15,7 4 2 SW 1023,0 20
20.10.2018 13:00:00 22,0 16,0 4 2 ESE - 10
20.10.2018 12:00:00 20,0 13,0 4 2 SSW - 10
20.10.2018 11:00:00 19,0 12,0 4 2 SSW 1023,5 25
20.10.2018 10:00:00 17,0 13,0 8 4 E - 10
20.10.2018 09:00:00 14,0 12,0 4 2 NNE - 10
20.10.2018 08:00:00 12,0 10,7 5 3 NNE 1022,6 20
20.10.2018 07:00:00 14,0 12,0 4 2 NNE - 10
20.10.2018 06:00:00 14,0 13,0 4 2 NW - 10
20.10.2018 05:00:00 - - - - - - -
20.10.2018 04:00:00 - - - - - - -
20.10.2018 03:00:00 - - - - - - -
20.10.2018 02:00:00 - - - - - - -
20.10.2018 01:00:00 - - - - - - -
20.10.2018 00:00:00 - - - - - - -
19.10.2018 23:00:00 - - - - - - -
19.10.2018 22:00:00 16,0 13,0 13 7 NNE - 10
19.10.2018 21:00:00 16,0 14,0 13 7 NE - 10
19.10.2018 20:00:00 17,6 14,7 9 5 NNE 1019,3 25
19.10.2018 19:00:00 21,0 14,0 5 3 N - 10
19.10.2018 18:00:00 23,0 12,0 2 1 SW - 10
19.10.2018 17:00:00 24,0 11,4 4 2 SE 1017,3 25
19.10.2018 16:00:00 24,0 12,0 5 3 ENE - 10
19.10.2018 15:00:00 24,0 13,0 5 3 NNW - 10
19.10.2018 14:00:00 24,2 12,8 11 6 ENE 1017,7 25
19.10.2018 13:00:00 23,0 13,0 2 1 SSW - 10
19.10.2018 12:00:00 23,0 13,0 8 4 ESE - 10
19.10.2018 11:00:00 18,8 9,6 5 3 E 1018,4 25
19.10.2018 10:00:00 16,0 11,0 4 2 E - 10
19.10.2018 09:00:00 15,0 13,0 4 2 NE - 10
19.10.2018 08:00:00 13,6 12,0 11 6 NE 1017,3 25
19.10.2018 07:00:00 14,0 12,0 4 2 N - 10
19.10.2018 06:00:00 14,0 13,0 8 4 N - 10
19.10.2018 05:00:00 - - - - - - -
19.10.2018 04:00:00 - - - - - - -
19.10.2018 03:00:00 - - - - - - -
19.10.2018 02:00:00 - - - - - - -
19.10.2018 01:00:00 - - - - - - -
19.10.2018 00:00:00 - - - - - - -
18.10.2018 23:00:00 - - - - - - -
18.10.2018 22:00:00 18,0 16,0 13 7 NE - 10
18.10.2018 21:00:00 18,0 15,0 11 6 NE - 10
18.10.2018 20:00:00 18,0 14,5 8 4 N 1015,5 15
18.10.2018 19:00:00 21,0 15,0 4 2 E - 10
18.10.2018 18:00:00 23,0 15,0 4 2 SSW - 10
18.10.2018 17:00:00 24,0 14,1 5 3 SSE 1014,9 13
18.10.2018 16:00:00 24,0 13,0 5 3 ENE - 10
18.10.2018 15:00:00 24,0 13,0 8 4 ENE - 10
18.10.2018 14:00:00 23,6 13,5 5 3 ENE 1015,3 18
18.10.2018 13:00:00 23,0 14,0 4 2 N - 10
18.10.2018 12:00:00 22,0 15,0 4 2 W - 10
18.10.2018 11:00:00 20,2 15,0 5 3 SSW 1016,7 25
18.10.2018 10:00:00 19,0 13,0 4 2 SE - 10
18.10.2018 09:00:00 15,0 13,0 8 4 N - 10
18.10.2018 08:00:00 13,0 11,2 5 3 NNE 1016,3 25
18.10.2018 07:00:00 14,0 12,0 8 4 N - 10
18.10.2018 06:00:00 14,0 13,0 8 4 NNE - 10
18.10.2018 05:00:00 - - - - - - -
18.10.2018 04:00:00 - - - - - - -
18.10.2018 03:00:00 - - - - - - -
18.10.2018 02:00:00 - - - - - - -
18.10.2018 01:00:00 - - - - - - -
18.10.2018 00:00:00 - - - - - - -
17.10.2018 23:00:00 - - - - - - -
17.10.2018 22:00:00 16,0 15,0 9 5 NE - 10
17.10.2018 21:00:00 16,0 16,0 8 4 NNE - 10
17.10.2018 20:00:00 16,2 15,9 9 5 N 1018,2 12
17.10.2018 19:00:00 17,0 17,0 11 6 N - 8
17.10.2018 18:00:00 18,0 17,0 13 7 ENE - 10
17.10.2018 17:00:00 19,6 15,0 5 3 ESE 1018,1 15
17.10.2018 16:00:00 20,0 15,0 5 3 E - 10
17.10.2018 15:00:00 20,0 15,0 9 5 E - 10
17.10.2018 14:00:00 19,8 14,6 11 6 ENE 1019,1 15
17.10.2018 13:00:00 20,0 17,0 9 5 ENE - 10
17.10.2018 12:00:00 19,0 14,0 9 5 ENE - 10
17.10.2018 11:00:00 18,0 14,9 5 3 NNE 1019,8 25
17.10.2018 10:00:00 16,0 15,0 4 2 ESE - 10
17.10.2018 09:00:00 16,0 15,0 5 3 N - 10
17.10.2018 08:00:00 15,0 13,7 4 2 N 1019,4 25
17.10.2018 07:00:00 16,0 14,0 5 3 W - 10
17.10.2018 06:00:00 15,0 14,0 8 4 ENE - 10
17.10.2018 05:00:00 - - - - - - -
17.10.2018 04:00:00 - - - - - - -
17.10.2018 03:00:00 - - - - - - -
17.10.2018 02:00:00 - - - - - - -
17.10.2018 01:00:00 - - - - - - -
17.10.2018 00:00:00 - - - - - - -
16.10.2018 23:00:00 - - - - - - -
16.10.2018 22:00:00 15,0 14,0 5 3 NNE - 10
16.10.2018 21:00:00 16,0 15,0 5 3 N - 10
16.10.2018 20:00:00 17,0 15,4 5 3 NNE 1020,8 15
16.10.2018 19:00:00 18,0 15,0 5 3 NNW - 10
16.10.2018 18:00:00 19,0 15,0 5 3 W - 10
16.10.2018 17:00:00 20,0 14,4 8 4 SSE 1020,3 14
16.10.2018 16:00:00 21,0 13,0 5 3 SE - 10
16.10.2018 15:00:00 21,0 13,0 5 3 ENE - 10
16.10.2018 14:00:00 20,0 13,0 4 2 N 1020,7 15
16.10.2018 13:00:00 19,0 15,0 5 3 WSW - 10
16.10.2018 12:00:00 19,0 12,0 2 1 ESE - 10
16.10.2018 11:00:00 17,4 14,3 4 2 N 1020,7 20
16.10.2018 10:00:00 16,0 13,0 4 2 ENE - 10
16.10.2018 09:00:00 13,0 12,0 9 5 NNE - 10
16.10.2018 08:00:00 12,6 12,3 5 3 W 1020,2 20
16.10.2018 07:00:00 13,0 12,0 8 4 NNE - 10
16.10.2018 06:00:00 12,0 12,0 11 6 NNE - 10
16.10.2018 05:00:00 - - - - - - -
16.10.2018 04:00:00 - - - - - - -
16.10.2018 03:00:00 - - - - - - -
16.10.2018 02:00:00 - - - - - - -
16.10.2018 01:00:00 - - - - - - -
16.10.2018 00:00:00 - - - - - - -
15.10.2018 23:00:00 - - - - - - -
15.10.2018 22:00:00 15,0 14,0 4 2 NNE - 10
15.10.2018 21:00:00 16,0 14,0 8 4 N - 10
15.10.2018 20:00:00 17,0 15,0 5 3 NE 1020,5 15
15.10.2018 19:00:00 17,0 12,0 8 4 NE - 10
15.10.2018 18:00:00 18,0 12,0 9 5 NE - 10
15.10.2018 17:00:00 19,0 12,5 11 6 ENE 1019,8 12
15.10.2018 16:00:00 20,0 12,0 9 5 ENE - 10
15.10.2018 15:00:00 20,0 13,0 9 5 ENE - 10
15.10.2018 14:00:00 20,0 12,5 9 5 E 1019,8 14
15.10.2018 13:00:00 20,0 13,0 8 4 ENE - 10
15.10.2018 12:00:00 19,0 12,0 13 7 NE - 10
15.10.2018 11:00:00 17,4 13,5 13 7 NE 1019,7 20
15.10.2018 10:00:00 16,0 13,0 9 5 ENE - 10
15.10.2018 09:00:00 15,0 12,0 5 3 E - 10
15.10.2018 08:00:00 14,2 12,2 8 4 NNE 1018,5 20
15.10.2018 07:00:00 13,0 11,0 9 5 N - 10
15.10.2018 06:00:00 13,0 11,0 8 4 ENE - 10
15.10.2018 05:00:00 - - - - - - -
15.10.2018 04:00:00 - - - - - - -
15.10.2018 03:00:00 - - - - - - -
15.10.2018 02:00:00 - - - - - - -
15.10.2018 01:00:00 - - - - - - -
15.10.2018 00:00:00 - - - - - - -
14.10.2018 23:00:00 - - - - - - -
14.10.2018 22:00:00 - - - - - - -
14.10.2018 21:00:00 - - - - - - -

tt = Température de l'air
td = dewpoint
ff = Vitesse du vent
dd = Direction du vent
ppp = reduced air pressure
vv = visibility

stations d'obs. à proximité